Voltar ao catálogo

STARLINK-36103

AtivoComunicaçõesVLEO
NORAD 66985·PAYLOAD·🇺🇸 United States

Lançado Dec 8, 2025 de Cape Canaveral Space Force Station

Loading…

Próximas Passagens (próximas 24 horas)

TLE

AtualizadoSource: CelesTrak SupGP

Época: Sep 14, 2026, 22:53 UTC

1 66985C 25288AC  26257.95395833  .00018741  00000+0  67870-3 0  2574
2 66985  43.0042  34.8778 0002126 273.3035 296.5636 15.27572185    11

Acompanhe STARLINK-36103 em tempo real com AllMySat

Download on the App Store